Location: Podia
(1.5569°N, 32.3469°E)
Time: 20:59:09
(UTC+00:00)

SJ-11-01 - Pass Details

Date: 01 June 2020
Orbit: 684 x 701 km, 98.0° (Epoch: 06 July)

Event Time Altitude Azimuth Distance (km) Brightness Sun altitude
Exits shadow 17:19:35 45° 124° (ESE) 949 4.5 -20.3°
Maximum altitude 17:20:38 55° 78° (ENE) 832 4.4 -20.6°
Drops below altitude 10° 17:25:14 10° 1° (N) 2,144 7.1 -21.6°
Sets 17:27:30 0° 356° (N) 3,056 8.0 -22.1°
